Location: Clear Lake
(43.1380°N, 93.3794°W)
Time: 02:08:53
(UTC+00:00)

Daily predictions for brighter satellites

Satellite Brightness Start Highest point End
(mag) Time Altitude Azimuth Time Altitude Azimuth Time Altitude Azimuth
Cosmos 468 Rocket 4.4 02:24:21 10° N 02:29:27 50° ENE 02:34:27 10° SE
CZ-4 R/B 3.7 02:28:22 10° SSW 02:31:35 24° W 02:34:52 10° NW
Ariane Rocket 4.5 02:28:22 10° ESE 02:32:18 23° ENE 02:36:15 10° NNE
CZ-4B R/B 4.1 02:27:40 10° S 02:32:45 48° W 02:37:55 10° NNW
KORONAS-FOTON 3.7 02:31:26 10° S 02:35:06 65° E 02:38:49 10° NNE
IRIDIUM 106 4.4 02:34:07 10° N 02:39:22 85° E 02:44:35 10° S
Cosmos 1842 3.0 02:37:08 10° S 02:40:46 84° E 02:44:26 10° N
ATLAS 2AS CENTAUR R/B 4.0 02:36:57 10° NNW 02:42:50 29° NE 02:48:31 10° E
Cosmos 2360 Rocket 3.8 02:42:37 10° N 02:47:07 23° NE 02:51:35 10° ESE
Cosmos 540 Rocket 3.5 02:43:46 10° NNW 02:48:58 82° ENE 02:54:05 10° SSE
IRS-1C Rocket 4.3 02:45:53 10° SSE 02:51:02 61° ENE 02:56:14 10° N
In-Cosmos 22 4.4 02:45:59 10° SSE 02:51:25 51° E 02:56:46 10° NNE
RESURS DK-1 3.8 02:48:50 10° N 02:52:16 26° NE 02:55:35 11° ESE
SPOT 3 Rocket 4.5 02:51:37 11° SE 02:55:58 34° ENE 03:00:34 10° N
SL-16 R/B 2.6 02:52:50 10° NNW 02:58:23 52° ENE 03:03:14 13° SE
Cosmos 2333 Rocket 3.6 02:55:26 10° N 03:00:17 27° NE 03:05:07 10° ESE
Cosmos 2082 Rocket 3.6 02:54:54 10° SW 03:00:19 44° WNW 03:05:46 10° NNE
MOS 1 Rocket 4.2 02:59:27 13° SE 03:04:00 43° ENE 03:09:00 10° N
Okean-O 3.2 02:59:46 10° S 03:04:06 57° W 03:08:27 10° NNW
Cosmos 1954 Rocket 4.4 02:59:35 10° SSW 03:04:51 70° WNW 03:10:08 10° NNE
Cosmos 1707 3.1 03:02:13 10° SSW 03:05:45 60° W 03:09:21 10° N
SeaSat 1 2.6 03:02:21 14° SE 03:06:35 62° ENE 03:11:27 10° NNW
Cosmos 1758 4.5 03:04:36 10° NNE 03:07:59 27° ENE 03:10:18 16° ESE
Atlas Centaur 2 3.8 03:01:20 10° WSW 03:08:19 33° S 03:14:19 14° SE
CZ-4C R/B 3.9 03:06:58 10° N 03:11:04 64° WNW 03:15:08 10° SSW
USA 245 3.3 03:10:21 17° SSE 03:12:53 65° ENE 03:17:07 10° N
Cosmos 676 Rocket 4.4 03:10:37 10° SSW 03:15:55 69° WNW 03:21:14 10° NNE
SPOT 5 3.0 03:14:24 10° S 03:18:38 59° W 03:22:58 10° NNW
IRS-1A Rocket 4.3 03:14:38 11° SSE 03:19:56 80° WSW 03:25:28 10° NNW
SL-08 ROCKET BODY 4.4 03:15:33 10° S 03:21:38 72° E 03:27:41 10° NNE
Tiangong -0.6 03:19:06 10° W 03:21:43 23° SSW 03:22:45 20° S
Cosmos 2228 Rocket 3.6 03:18:36 17° SSE 03:21:48 42° E 03:26:08 10° NNE
Okean O Rocket 4.0 03:21:23 10° SW 03:24:31 19° W 03:27:38 10° NW
Cosmos 1869 Rocket 3.6 03:22:12 10° N 03:26:39 81° W 03:30:18 15° S
SL-4 R/B 4.2 03:23:42 10° WNW 03:26:52 24° N 03:30:12 10° NE
Meteor 1-12 Rocket 4.5 03:22:27 10° N 03:28:28 66° ENE 03:32:55 18° SSE
Cosmos 1356 Rocket 3.8 03:25:56 19° SSE 03:28:34 45° E 03:32:36 10° NNE
S3M 4.0 03:22:54 10° N 03:29:19 85° E 03:34:40 15° S
Cosmos 1400 Rocket 2.7 03:28:43 10° SSW 03:32:34 83° W 03:36:27 10° N
ERS-1 Rocket 3.2 03:30:43 15° S 03:34:57 71° WSW 03:39:59 10° NNW
Meteor 1-22 Rocket 4.3 03:31:27 10° NNW 03:37:09 84° W 03:41:50 17° S
Cosmos 841 Rocket 3.5 03:33:08 10° NNW 03:38:25 85° WSW 03:41:59 21° SSE
Cosmos 2266 Rocket 4.2 03:32:15 10° S 03:38:33 79° W 03:45:00 10° N
Cosmos 1980 Rocket 4.5 03:35:28 10° WNW 03:39:08 18° W 03:42:48 10° SW
Cosmos 1655 Rocket 4.0 03:34:27 12° S 03:40:25 76° E 03:46:49 10° N
ATLAS CENTAUR R/B 0.8 03:37:30 10° SSW 03:40:57 77° ESE 03:44:31 10° NE
Cosmos 2322 Rocket 2.3 03:35:40 10° NNW 03:41:21 71° ENE 03:44:58 23° SE
Cosmos 1300 2.6 03:38:12 10° N 03:41:44 62° E 03:43:15 31° SSE
Timation 1 Rocket 4.4 03:38:24 10° SSW 03:44:21 80° WNW 03:50:20 10° NNE
Spot 2 Rocket 3.6 03:42:27 19° S 03:46:07 75° WSW 03:51:13 10° NNW
USA 234 3.6 03:42:45 10° NE 03:49:14 70° NW 03:55:44 10° WSW
Aureole 3 3.8 03:48:02 30° SE 03:49:33 46° E 03:53:59 10° NNE
Cosmos 1315 Rocket 3.9 03:49:43 25° ESE 03:50:30 27° E 03:53:54 10° NNE
Meteor 2-10 Rocket 3.7 03:47:21 10° NNW 03:52:56 80° W 03:56:28 22° S
Cosmos 2278 4.5 03:47:36 10° NW 03:53:02 46° WSW 03:57:04 17° S
Cosmos 1953 3.7 03:50:36 10° NNE 03:53:41 23° ENE 03:54:37 21° E
Cosmos 1862 Rocket 3.5 03:55:14 26° S 03:57:40 75° E 04:02:06 10° NNE
Terra 2.5 03:54:54 17° SSW 03:58:17 47° W 04:02:50 10° NNW
Meteor 1-21 4.2 03:54:03 18° S 03:58:27 80° E 04:04:18 10° NNE
Cosmos 807 4.2 03:59:20 37° S 04:00:33 88° E 04:03:36 10° N
Landsat 5 3.3 03:59:48 10° NNE 04:03:50 82° ESE 04:05:57 28° S
COSMOS 2428 4.3 04:00:54 10° N 04:05:29 24° NE 04:09:13 13° E
Cosmos 2219 Rocket 2.8 04:01:27 10° NNW 04:06:56 47° ENE 04:09:56 25° ESE
CZ-2C R/B 4.5 04:05:21 10° NNE 04:09:18 31° E 04:10:00 30° ESE
Okean 3 3.3 04:08:32 33° S 04:10:19 83° E 04:14:30 10° N
SL-27 R/B 2.8 04:09:25 28° WSW 04:10:28 44° WNW 04:13:11 10° N
Ariane Rocket 3.7 04:07:33 19° SSW 04:10:54 47° W 04:15:50 10° NNW
BlueWalker 3 3.8 04:15:31 17° E 04:15:31 17° E 04:16:39 10° ENE
SL-14 R/B 4.3 04:12:43 16° SW 04:15:22 40° WNW 04:18:59 10° N
Cosmos 1707 Rocket 4.2 04:15:11 18° SSW 04:18:17 53° W 04:22:39 10° N
SJ 16-02 1.2 04:16:45 29° SSW 04:18:54 90° W 04:23:16 10° NNE
Meteor 1-4 Rocket 1.9 04:21:23 79° SW 04:21:30 83° W 04:24:30 10° N
H-2A R/B 4.2 04:22:54 19° E 04:24:13 22° ENE 04:27:32 10° NNE
Cosmos 1346 Rocket 3.5 04:21:13 10° NNW 04:24:54 44° W 04:26:15 31° SW
COSMOS 2455 3.9 04:24:42 24° ESE 04:25:16 25° ESE 04:30:02 10° NE
CZ-4C R/B 3.6 04:28:06 16° E 04:28:06 16° E 04:30:12 10° ENE
SL-08 R/B 4.5 04:25:30 32° SSE 04:28:23 65° E 04:34:25 10° NNE
DNEPR-1 R/B 4.4 04:22:40 10° NNW 04:29:17 68° NE 04:31:50 33° SE
RESURS DK-1 3.7 04:26:26 10° NW 04:29:59 29° WSW 04:31:10 25° SW
Cosmos 2360 Rocket 2.4 04:25:56 10° NNW 04:31:32 61° WSW 04:34:00 33° S
ARIANE 5 R/B 3.1 04:31:12 38° ESE 04:32:18 47° ENE 04:36:28 10° N
ATLAS 2AS CENTAUR R/B 2.6 04:27:36 10° NW 04:34:23 75° WSW 04:37:29 34° SSE
Cosmos 1932 4.5 04:31:55 10° SW 04:38:17 82° NW 04:44:36 10° NNE
Cosmos 1733 Rocket 4.3 04:36:53 10° NNW 04:40:52 34° W 04:42:50 23° SW
SL-16 R/B 3.9 04:37:40 10° NW 04:42:04 24° WSW 04:45:05 16° SW
Cosmos 968 Rocket 4.5 04:37:16 10° SW 04:42:10 45° WNW 04:47:09 10° N
Cosmos 1455 1.8 04:40:28 10° N 04:43:59 82° E 04:44:05 80° ESE
SL-24 R/B - RUBIN 2 4.5 04:37:39 10° NNW 04:44:18 78° NE 04:47:01 36° SE
SeaSat 1 4.4 04:42:03 14° SW 04:44:22 18° WSW 04:47:43 10° WNW
Cosmos 2333 Rocket 2.7 04:39:16 10° NW 04:44:51 52° WSW 04:47:07 33° SSW
Cosmos 1242 Rocket 3.1 04:46:46 37° NNE 04:46:46 37° NNE 04:48:36 10° NNE
USA 281 3.2 04:45:41 33° SE 04:48:50 75° ENE 04:55:25 10° NNW
Okean 1-7 3.4 04:47:58 37° SW 04:49:27 60° W 04:53:45 10° N
CZ-2C R/B 3.8 04:50:23 38° SE 04:52:10 60° ENE 05:09:43 10° N
GP-B 3.0 04:48:08 10° N 04:52:34 80° E 04:53:24 58° SSE
Cosmos 1814 Rocket 4.4 04:48:38 10° NNW 04:53:48 54° WSW 04:55:33 37° SSW
GENESIS II 3.9 04:54:34 82° ENE 04:54:34 82° ENE 04:58:07 10° NE
Cosmos 1908 Rocket 3.5 04:50:29 10° N 04:54:50 78° W 04:55:38 57° SSW
Atlas Centaur 2 4.1 04:50:28 10° WSW 04:56:31 24° SSW 04:56:31 24° SSW
Cosmos 1782 Rocket 3.7 04:53:20 10° N 04:57:36 56° E 04:58:10 51° ESE
Cosmos 1408 3.8 05:03:04 27° NE 05:03:04 27° NE 05:04:45 10° NNE
Cosmos 2237 Rocket 3.7 05:01:19 10° N 05:06:10 28° NE 05:09:20 17° E
SL-4 R/B 3.7 05:02:52 10° NW 05:06:29 31° NNE 05:10:16 10° E
Cosmos 2322 3.6 05:03:02 10° NNW 05:08:45 82° ENE 05:10:30 46° SSE
Cosmos 839 Rocket 4.2 05:03:36 10° NW 05:10:09 58° WSW 05:12:09 40° S
Cosmos 2227 Rocket 3.9 05:10:41 17° E 05:10:46 17° E 05:14:20 10° ENE
Cosmos 1745 Rocket 4.0 05:08:42 40° S 05:11:11 86° E 05:17:36 10° N
Cosmos 2208 Rocket 4.0 05:07:37 10° NNW 05:12:49 69° ENE 05:14:06 49° SE
H-2A R/B 4.0 05:12:13 10° NE 05:14:25 16° E 05:14:25 16° E
Cosmos 1300 Rocket 3.4 05:11:45 10° N 05:16:04 74° E 05:16:26 68° SE
ATLAS CENTAUR R/B 4.2 05:17:35 10° WNW 05:19:06 12° NW 05:20:39 10° NNW
Nadezhda 1 Rocket 4.0 05:16:01 10° N 05:22:18 76° W 05:24:27 43° S
ALOS 2 2.9 05:23:09 51° ESE 05:23:42 56° ENE 05:28:01 10° N
Cosmos 2322 Rocket 4.1 05:21:13 10° WNW 05:24:44 17° W 05:26:46 14° WSW
PSLV R/B 4.4 05:21:29 10° N 05:25:22 50° WNW 05:26:00 45° WSW
BREEZE-M DEB (TANK) 4.5 05:15:39 10° W 05:28:08 48° N 05:31:50 10° ENE
Cosmos 1953 3.9 05:26:19 10° NW 05:29:25 24° W 05:29:44 23° W
Cosmos 2297 Rocket 2.4 05:29:40 46° SE 05:30:25 49° ESE 05:35:50 10° NE
CZ-3 Stage 3 4.1 05:04:28 10° W 05:32:46 40° SSW 05:35:53 34° S
CENTAUR R/B 3.7 05:33:38 22° ESE 05:33:38 22° ESE 05:38:21 10° ENE
Meteor 2-5 Rocket 3.8 05:41:48 51° SSE 05:43:17 73° E 05:49:09 10° NNE
Cosmos 1486 Rocket 4.0 05:46:25 49° SW 05:47:45 73° WNW 05:52:57 10° NNE
Cosmos 2242 Rocket 3.9 05:48:16 54° WSW 05:48:54 60° W 05:53:26 10° N
COSMOS 2428 2.9 05:44:31 10° NNW 05:50:07 59° WSW 05:51:11 50° SSW
Cosmos 2219 Rocket 3.5 05:45:55 10° NW 05:50:34 27° WSW 05:51:37 25° WSW
Cosmos 371 Rocket 3.3 05:50:32 61° SW 05:51:18 77° WNW 05:56:09 10° NNE
BlueWalker 3 3.0 05:49:45 26° W 05:51:23 41° NNW 05:54:58 10° NE
Sich 1 Rocket 4.4 05:47:23 10° N 05:51:31 39° ENE 05:51:57 38° E
Cosmos 405 Rocket 3.1 05:51:51 10° N 05:55:13 55° NE 05:55:13 55° NE
SJ 16-02 4.3 05:57:29 10° WNW 05:57:57 10° NW 05:58:23 10° NW
H-2A R/B 3.5 05:58:52 35° W 05:58:55 35° W 06:02:52 10° NNW
Cosmos 1354 Rocket 3.9 06:01:44 61° SSE 06:02:31 73° ESE 06:07:49 10° NNE
Cosmos 2263 Rocket 3.9 06:03:48 17° ESE 06:04:20 18° E 06:07:57 10° ENE
NOSS 0 Rocket 4.0 06:02:23 10° NNW 06:08:35 65° WSW 06:10:02 50° SSW
COSMOS 2455 3.3 06:07:47 29° WSW 06:10:45 58° NW 06:16:44 10° NNE
SL-12 R/B(2) 4.5 06:09:01 39° SSE 06:11:39 52° ESE 06:20:32 10° NE
CZ-4C R/B 2.3 06:13:08 39° WSW 06:14:36 57° NW 06:20:03 10° NNE
Cosmos 1703 4.3 06:15:08 34° WNW 06:15:08 34° WNW 06:18:21 10° N
NOSS 3-2 (A) 4.2 06:18:59 29° ESE 06:19:02 29° ESE 06:23:52 10° NE
Cosmos 1892 3.1 06:24:40 55° N 06:24:40 55° N 06:27:29 10° N
Cosmos 2184 Rocket 4.0 06:22:41 47° SSE 06:24:32 73° E 06:30:54 10° NNE
PSLV R/B 3.9 06:23:16 10° N 06:27:23 52° WNW 06:27:40 51° W
Okean 1 Rocket 3.2 06:23:19 10° N 06:27:39 61° E 06:27:57 59° ESE
Cosmos 2098 Rocket 4.3 06:24:14 10° NNW 06:30:41 56° W 06:32:30 42° SW
Cosmos 2154 Rocket 3.9 06:39:30 48° S 06:41:22 80° E 06:47:40 10° N
SL-16 R/B 3.0 06:37:49 10° NNW 06:43:20 48° ENE 06:46:35 23° ESE
Cosmos 332 Rocket 3.9 06:44:02 55° WSW 06:44:52 66° WNW 06:49:46 10° NNE
SL-4 R/B 2.1 06:41:26 10° WNW 06:45:06 69° WNW 06:45:06 69° WNW
BREEZE-M DEB (TANK) 4.1 06:44:27 10° NNW 06:49:10 - E 06:45:51 17° NNE
Cosmos 990 Rocket 3.8 06:48:20 62° S 06:49:12 80° ESE 06:54:21 10° NNE
Cosmos 2237 Rocket 2.5 06:45:01 10° NW 06:50:26 48° WSW 06:51:07 45° SW
Cosmos 1975 Rocket 4.0 06:49:56 35° ESE 06:50:27 36° E 06:54:28 10° NNE
H-2A R/B 2.6 06:46:44 10° N 06:50:48 45° WNW 06:51:12 43° W
Cosmos 2082 4.3 06:51:06 37° SE 06:52:15 42° ESE 06:57:31 10° NE
Cosmos 2227 Rocket 2.3 06:52:28 45° SW 06:54:10 70° WNW 06:59:51 10° NNE
Cosmos 2084 Rocket 4.3 06:54:19 36° W 06:55:19 43° NW 06:59:18 10° NNE
IDEFIX/ARIANE 42P 4.4 06:51:42 10° NE 06:55:30 20° E 06:57:28 16° ESE
Cosmos 1825 3.2 06:56:41 33° NW 06:56:41 33° NW 06:59:20 10° N
Cosmos 1980 4.4 06:58:20 10° NW 07:03:25 35° WSW 07:03:53 34° WSW
GEOS 3 Rocket 3.9 06:59:12 10° NNE 07:04:17 60° NW 07:06:16 35° WSW
Cosmos 1455 Rocket 3.3 07:00:29 10° N 07:04:54 64° E 07:05:42 53° SE
CZ-2D R/B 4.2 07:01:39 10° NE 07:05:07 17° E 07:07:38 13° ESE
Okean 2 Rocket 4.1 07:01:07 10° NNW 07:05:07 33° W 07:05:12 33° W
Cosmos 1538 Rocket 3.9 07:01:32 10° NNW 07:06:46 86° ENE 07:08:16 48° SSE
Meteor 1-21 Rocket 4.2 07:07:55 48° S 07:09:37 89° ESE 07:15:22 10° N
Cosmos 2297 Rocket 3.7 07:11:26 17° W 07:14:41 28° NW 07:19:29 10° N
Cosmos 2219 3.1 07:15:09 47° SSW 07:16:50 82° WNW 07:22:30 10° NNE
Cosmos 1025 Rocket 3.3 07:17:45 51° WSW 07:18:11 54° W 07:22:26 10° N
Cosmos 1606 4.0 07:15:54 10° NNE 07:19:08 31° ENE 07:19:53 28° ESE
CENTAUR R/B 2.7 07:20:44 33° WSW 07:23:22 64° NW 07:30:17 10° NNE
Cosmos 372 Rocket 4.2 07:22:07 45° SSE 07:23:31 63° ESE 07:28:41 10° NNE
Aureole 1 Rocket 2.5 07:23:52 75° WNW 07:23:54 75° WNW 07:28:05 10° NNE
TIMED 4.4 07:27:36 60° SW 07:28:13 72° WNW 07:32:33 10° NNE
Cosmos 2341 Rocket 4.0 07:27:49 37° S 07:30:25 75° E 07:36:39 10° N
ADEOS II 4.1 07:27:22 10° NE 07:31:07 20° E 07:34:19 12° SE
Helios 1A Rocket 2.5 07:33:25 76° SSW 07:33:40 81° WSW 07:37:28 10° NNW
CRYOSAT 2 4.3 07:28:51 10° N 07:33:46 78° W 07:35:03 49° SSW
Cosmos 923 Rocket 4.3 07:29:33 10° NNW 07:34:48 66° ENE 07:37:48 25° SE
Cosmos 1461 2.8 07:36:27 59° SE 07:36:43 61° ESE 07:40:35 10° NE
Meteor 2-1 Rocket 4.3 07:33:58 10° N 07:39:55 87° E 07:42:41 33° SSE
Cosmos 1937 Rocket 3.5 07:38:33 44° S 07:40:16 76° ESE 07:45:31 10° NNE
MOZ.5/SAFIR/RUBIN 5/SL-8 3.8 07:39:56 37° SSE 07:41:44 77° ENE 07:46:22 10° N
Cosmos 1898 Rocket 3.5 07:42:11 43° SW 07:43:51 74° WNW 07:49:02 10° NNE
Resurs 1-4 Rocket 3.0 07:39:48 10° NNE 07:44:46 41° E 07:47:22 24° SSE
Cosmos 2263 Rocket 2.3 07:45:28 37° SW 07:47:39 67° WNW 07:53:12 10° NNE
Cosmos 1821 Rocket 4.3 08:00:01 24° SSE 08:03:45 62° E 08:09:48 10° NNE
Cosmos 1869 3.1 08:02:00 10° NNW 08:05:39 62° W 08:06:12 54° SW
Cosmos 2218 Rocket 4.0 08:03:35 31° SSW 08:06:42 75° W 08:12:54 10° N
Cosmos 1844 Rocket 3.7 08:04:20 21° SSE 08:07:27 37° ESE 08:12:32 10° NE
NOSS 3-2 (A) 4.0 08:06:19 22° WSW 08:09:26 45° NW 08:15:21 10° NNE
ALOS 4.2 08:06:09 10° NE 08:09:48 23° E 08:13:24 10° SE
Cosmos 2366 rocket 4.1 08:10:21 30° SSW 08:13:33 64° W 08:19:46 10° N
Cosmos 1437 Rocket 3.3 08:12:41 30° SSE 08:14:14 50° E 08:17:56 10° NNE
NOSS 3-2 (C) 3.1 08:12:44 32° SW 08:15:15 84° NW 08:21:22 10° NE
Cosmos 1544 Rocket 3.7 08:12:09 10° NNW 08:16:32 58° W 08:18:04 36° SSW
Cosmos 1680 Rocket 3.4 08:11:48 10° NNW 08:17:00 73° WSW 08:20:14 23° S
Cosmos 2112 Rocket 3.9 08:14:05 10° NNW 08:19:17 82° WSW 08:23:05 19° SSE
Cosmos 1818 3.5 08:14:04 10° NW 08:19:32 71° WSW 08:24:47 11° SSE
Cosmos 2228 2.9 08:15:49 10° NNW 08:20:08 73° W 08:21:59 33° S
USA 267 3.9 08:14:08 10° ENE 08:20:16 42° SE 08:24:01 22° S
MSX 3.8 08:16:28 10° NNE 08:22:13 84° WNW 08:25:33 27° SSW
COSMOS 2441 4.4 08:21:35 10° NNE 08:26:24 73° ESE 08:29:13 25° S
SL-16 R/B 3.2 08:22:30 10° NW 08:27:07 26° WSW 08:28:24 24° WSW
Cosmos 1603 4.0 08:26:33 10° NNW 08:32:19 70° ENE 08:38:01 10° SSE
H-2A R/B 3.7 08:30:24 10° N 08:34:17 51° WNW 08:35:54 30° SW
IDEFIX/ARIANE 42P 2.9 08:30:13 10° N 08:35:19 54° WNW 08:38:13 25° SW
SL-16 R/B 3.0 08:31:00 10° SSE 08:37:09 64° ENE 08:43:19 10° N
Cosmos 2227 Rocket 4.5 08:36:35 10° WNW 08:39:17 13° NW 08:42:01 10° NNW
CZ-2C R/B 2.7 08:37:15 21° S 08:40:44 59° W 08:46:04 10° NNW
CZ-2C R/B 3.1 08:36:06 10° N 08:41:32 79° WNW 08:44:53 22° SSW
Cosmos 1943 3.2 08:36:36 10° NNW 08:42:09 63° WSW 08:47:40 10° S
CZ-2D R/B 2.3 08:40:17 10° N 08:45:33 62° WNW 08:48:56 22° SSW
FENGYUN 3A 3.6 08:43:29 10° NNE 08:48:54 88° WNW 08:52:54 19° SSW
Cosmos 1606 Rocket 3.6 08:47:37 10° N 08:52:05 87° ENE 08:56:15 11° S
Cosmos 921 Rocket 2.9 08:48:36 10° NNW 08:52:51 83° ENE 08:57:01 10° SSE
Cosmos 1606 4.4 08:51:23 10° NW 08:53:31 15° W 08:53:51 15° W
Cosmos 1048 Rocket 4.4 08:48:30 10° NNW 08:53:42 67° ENE 08:58:57 10° SSE
ASTEX 1 3.3 08:52:23 12° S 08:56:54 88° W 09:01:48 10° N
Cosmos 1536 Rocket 4.4 08:55:28 21° SW 08:57:45 35° WNW 09:01:50 10° N
Cosmos 1125 Rocket 4.1 08:57:57 12° S 09:02:37 55° ESE 09:07:47 10° NNE
CZ-2C R/B 4.3 08:59:34 10° NE 09:03:12 23° E 09:06:51 10° SSE
Orbus 7S? 3.5 09:01:34 10° WNW 09:04:37 54° SW 09:10:15 10° SSE
Cosmos 1727 Rocket 4.3 08:58:55 10° NNW 09:04:59 49° W 09:10:22 13° SSW
Cosmos 1867 3.7 09:01:14 19° SW 09:05:11 70° NW 09:10:41 10° NNE
Cosmos 1726 Rocket 3.5 09:03:07 10° N 09:07:34 86° W 09:11:59 10° S
Cosmos 1238 Rocket 4.3 09:04:40 10° NNE 09:07:42 29° ENE 09:10:25 10° SE
Cosmos 494 Rocket 4.0 09:04:29 10° NNW 09:09:41 65° WSW 09:14:52 10° S
Cosmos 1812 3.0 09:07:10 10° N 09:10:43 62° E 09:14:14 10° SSE
ADEOS II 2.4 09:05:56 10° N 09:11:03 55° WNW 09:15:10 16° SW
Iridium 2 2.4 09:09:46 22° S 09:11:11 87° W 09:13:40 10° N
IRAS Rocket 4.3 09:09:50 10° NNE 09:15:20 78° ESE 09:20:50 10° SSW
Cosmos 2058 3.2 09:12:32 10° S 09:16:31 63° E 09:20:34 10° NNE
SAR-Lupe-4 3.5 09:15:53 10° NNE 09:19:28 86° WNW 09:22:35 13° SSW
Cosmos 1844 3.9 09:15:24 15° SW 09:20:11 68° WNW 09:25:59 10° NNE
USA 238 DEB 3.9 09:16:15 14° SW 09:21:32 59° NW 09:28:13 10° NNE
USA 238 3.8 09:16:17 14° SW 09:21:35 60° NW 09:28:16 10° NNE
USA 81 4.1 09:16:51 10° N 09:22:09 89° E 09:27:25 10° S
Resurs 1-4 Rocket 3.3 09:19:57 10° N 09:24:22 28° WNW 09:28:26 11° WSW
Iridium 4 Rocket 3.4 09:22:25 10° N 09:26:53 78° E 09:31:43 10° S
ATLAS 5 CENTAUR R/B 2.9 09:26:42 10° SSE 09:29:14 21° ESE 09:31:52 10° ENE
Timation 2 Rocket 4.2 09:23:52 10° SSW 09:30:32 81° ESE 09:36:57 10° NNE
UNK 3.7 09:27:52 10° S 09:32:27 67° WSW 09:37:02 10° NNW
Cosmos 2263 Rocket 4.4 09:30:18 10° WNW 09:32:40 13° NW 09:35:04 10° NNW
Cosmos 724 4.3 09:31:23 10° NW 09:37:13 84° WSW 09:43:04 10° SSE
Meteor 1-28 Rocket 4.3 09:35:43 12° SSW 09:38:21 24° W 09:41:18 10° NW
NOAA 11 4.3 09:38:48 10° NNE 09:44:19 83° ESE 09:49:46 10° SSW
Cosmos 1544 2.1 09:42:49 10° SSW 09:45:25 75° W 09:48:03 10° N
Cosmos 2058 Rocket 3.1 09:41:26 10° NNW 09:45:50 63° W 09:50:09 10° S
Cosmos 1892 Rocket 4.3 09:42:46 10° SW 09:46:50 37° WNW 09:50:58 10° N
ALOS 3.0 09:42:51 10° N 09:47:06 37° WNW 09:51:20 10° SW
Cosmos 1844 Rocket 3.7 09:46:17 10° WSW 09:51:19 34° NW 09:56:23 10° N
METEOR-M 4.2 09:46:11 10° N 09:51:33 79° WNW 09:56:53 10° SSW
Cosmos 1758 Rocket 4.4 09:47:35 10° S 09:51:53 53° E 09:56:11 10° NNE
Cosmos 2298 Rocket 4.1 09:50:28 10° SSW 09:55:47 89° ESE 10:01:09 10° NNE
BREEZE-M DEB (TANK) 4.4 09:54:41 10° SW 09:58:19 61° SE 10:11:22 10° ENE
Cosmos 1607 4.2 09:52:53 10° NW 09:58:58 48° WSW 10:04:55 10° S
USA 267 3.6 09:56:59 10° NE 10:03:26 63° NW 10:09:52 10° WSW
